RYR349 EGCC-EDDH

Flight info

Callsign RYR349
Flight time N/A
Altitude 39000
Route DESIG L603 LAMSO DCT PETIK P154 SPY N873 ANDIK M105 RIBSO RIBSO7A
Aircraft B738/M-SDE2E3FGHIRWXY/LB1

Departure

Time 2026-04-30 18:11
Airport Manchester Airport (EGCC)

Arrival

Time N/A
Airport Hamburg Helmut Schmidt Airport (EDDH)
Time Latitude Longitude Altitude Speed Heading
2026-04-30 17:39 53.36088 -2.26806 266 ft 0 kts 322°
2026-04-30 17:59 53.36089 -2.26806 266 ft 0 kts 322°
2026-04-30 18:00 53.36049 -2.26754 267 ft 1 kts 323°
2026-04-30 18:00 53.36048 -2.26706 267 ft 1 kts 229°
2026-04-30 18:01 53.36049 -2.26704 267 ft 0 kts 229°
2026-04-30 18:03 53.35999 -2.26733 268 ft 7 kts 177°
2026-04-30 18:04 53.35819 -2.27169 257 ft 13 kts 288°
2026-04-30 18:05 53.35425 -2.27970 237 ft 26 kts 224°
2026-04-30 18:06 53.35030 -2.28715 224 ft 14 kts 230°
2026-04-30 18:07 53.34815 -2.29060 210 ft 4 kts 199°
2026-04-30 18:08 53.34787 -2.29070 210 ft 3 kts 185°
2026-04-30 18:09 53.34714 -2.29041 209 ft 8 kts 149°
2026-04-30 18:10 53.34717 -2.28858 214 ft 3 kts 53°
2026-04-30 18:11 53.36928 -2.24255 1828 ft 172 kts 52°
2026-04-30 18:11 53.38761 -2.19596 3861 ft 174 kts 52°
2026-04-30 18:12 53.41197 -2.14290 4865 ft 210 kts 49°
2026-04-30 18:13 53.42885 -2.10541 4680 ft 193 kts 54°
2026-04-30 18:13 53.45365 -2.04168 6117 ft 238 kts 48°
2026-04-30 18:14 53.47453 -1.99975 7645 ft 251 kts 51°
2026-04-30 18:15 53.49348 -1.90045 8753 ft 327 kts 94°
2026-04-30 18:15 53.47601 -1.79735 10181 ft 297 kts 107°
2026-04-30 18:16 53.46279 -1.73354 11748 ft 304 kts 103°
2026-04-30 18:16 53.44897 -1.66558 13399 ft 310 kts 107°
2026-04-30 18:17 53.44113 -1.63231 14218 ft 310 kts 106°
2026-04-30 18:17 53.43443 -1.59781 14921 ft 313 kts 102°
2026-04-30 18:17 53.42256 -1.52673 16106 ft 327 kts 103°
2026-04-30 18:18 53.41566 -1.48989 16753 ft 332 kts 103°
2026-04-30 18:18 53.40887 -1.45328 17445 ft 333 kts 102°
2026-04-30 18:18 53.40292 -1.41614 18122 ft 333 kts 98°
2026-04-30 18:18 53.39736 -1.37816 18728 ft 337 kts 98°
2026-04-30 18:19 53.39188 -1.33968 19299 ft 342 kts 99°
2026-04-30 18:19 53.38584 -1.30093 19765 ft 349 kts 100°
2026-04-30 18:19 53.37875 -1.26131 20172 ft 361 kts 103°
2026-04-30 18:19 53.37083 -1.22047 20457 ft 374 kts 103°
2026-04-30 18:20 53.36285 -1.17887 21004 ft 377 kts 101°
2026-04-30 18:20 53.35635 -1.13728 21767 ft 370 kts 96°
2026-04-30 18:20 53.35124 -1.09529 22512 ft 363 kts 91°
2026-04-30 18:20 53.34730 -1.05383 23017 ft 365 kts 89°
2026-04-30 18:21 53.34374 -1.01111 23253 ft 377 kts 90°
2026-04-30 18:21 53.33909 -0.96701 23554 ft 389 kts 94°
2026-04-30 18:21 53.33340 -0.92320 24089 ft 391 kts 95°
2026-04-30 18:21 53.32637 -0.87856 24470 ft 401 kts 98°
2026-04-30 18:22 53.31819 -0.83345 24524 ft 418 kts 101°
2026-04-30 18:22 53.29888 -0.74218 26020 ft 410 kts 103°
2026-04-30 18:22 53.28888 -0.69707 26154 ft 421 kts 102°
2026-04-30 18:23 53.27956 -0.65026 26615 ft 422 kts 101°
2026-04-30 18:23 53.27066 -0.60474 27637 ft 408 kts 101°
2026-04-30 18:23 53.26712 -0.58680 27692 ft 413 kts 101°
2026-04-30 18:24 53.25685 -0.53582 27904 ft 421 kts 102°
2026-04-30 18:24 53.24724 -0.49039 28668 ft 415 kts 102°
2026-04-30 18:24 53.23732 -0.44422 28867 ft 423 kts 103°
2026-04-30 18:25 53.22723 -0.39827 29636 ft 414 kts 103°
2026-04-30 18:25 53.20674 -0.30711 29914 ft 433 kts 104°
2026-04-30 18:25 53.19596 -0.25891 30124 ft 439 kts 104°
2026-04-30 18:26 53.17864 -0.17957 30814 ft 438 kts 102°
2026-04-30 18:26 53.17230 -0.14707 30864 ft 443 kts 100°
2026-04-30 18:27 53.15841 -0.06510 30857 ft 459 kts 98°
2026-04-30 18:27 53.14895 -0.01295 31269 ft 462 kts 101°
2026-04-30 18:28 53.12875 0.08816 32144 ft 460 kts 103°
2026-04-30 18:28 53.11843 0.13929 32321 ft 466 kts 102°
2026-04-30 18:28 53.09815 0.24201 32837 ft 471 kts 102°
2026-04-30 18:29 53.08835 0.29365 33254 ft 468 kts 101°
2026-04-30 18:29 53.06193 0.44942 34059 ft 471 kts 99°
2026-04-30 18:30 53.04277 0.55376 34529 ft 477 kts 103°
2026-04-30 18:30 53.02232 0.65792 35137 ft 474 kts 101°
2026-04-30 18:31 53.01409 0.70985 35326 ft 474 kts 98°
2026-04-30 18:31 52.99618 0.81591 36081 ft 473 kts 108°
2026-04-30 18:32 52.96969 0.91524 36543 ft 475 kts 110°
2026-04-30 18:32 52.95681 0.96548 36623 ft 479 kts 108°
2026-04-30 18:32 52.93035 1.06829 36823 ft 488 kts 111°
2026-04-30 18:33 52.91589 1.11926 37196 ft 485 kts 111°
2026-04-30 18:33 52.89148 1.22158 37853 ft 476 kts 106°
2026-04-30 18:33 52.87978 1.27313 37905 ft 479 kts 105°
2026-04-30 18:34 52.85142 1.43261 38235 ft 482 kts 97°
2026-04-30 18:34 52.84463 1.48629 38671 ft 472 kts 95°
2026-04-30 18:35 52.83902 1.53975 38900 ft 470 kts 93°
2026-04-30 18:35 52.83454 1.59309 38771 ft 478 kts 91°
2026-04-30 18:35 52.83110 1.64717 39060 ft 469 kts 89°
2026-04-30 18:36 52.82691 1.75418 39319 ft 460 kts 87°
2026-04-30 18:36 52.82513 1.80649 39354 ft 457 kts 90°
2026-04-30 18:37 52.81295 1.96273 39416 ft 458 kts 94°
2026-04-30 18:37 52.80344 2.06683 39420 ft 462 kts 94°
2026-04-30 18:37 52.79868 2.11877 39190 ft 463 kts 94°
2026-04-30 18:38 52.79694 2.13777 39046 ft 463 kts 94°
2026-04-30 18:38 52.79475 2.16170 38845 ft 463 kts 94°
2026-04-30 18:38 52.78991 2.21469 39030 ft 439 kts 93°
2026-04-30 18:39 52.78540 2.26333 39616 ft 423 kts 93°
2026-04-30 18:39 52.78249 2.29444 39878 ft 407 kts 93°